This demonstration page uses our WeatherBlox Daily Observations layout. Learn more.

Left ArrowRight Arrow

39.51506, -84.39828

Hourly Observations for March 23, 2017

Temp ( °F °C ) Dew Point ( °F °C ) Humidity (%) Winds ( mph kmh ) Pressure ( in mb ) Visibility ( mi km ) Precip ( " mm )
12:15 am 00:15 Clear 34 1.2 19 -7.3 54 54 NNE 8 13 30.56 1035 10 16 0.00 0.00
12:35 am 00:35 Clear 32 0 18 -8 55 55 NNE 7 11 30.53 1034 10 16 0.00 0.00
12:55 am 00:55 Clear 32 0 18 -8 55 55 NNE 7 11 30.53 1034 10 16 0.00 0.00
1:15 am 01:15 Clear 32 -0.1 18 -7.9 56 56 NNE 7 11 30.53 1034 10 16 0.00 0.00
1:35 am 01:35 Clear 31 -0.7 17 -8.5 56 56 NE 8 13 30.53 1034 10 16 0.00 0.00
1:55 am 01:55 Clear 30 -0.9 17 -8.2 58 58 NE 7 11 30.53 1034 10 16 0.00 0.00
2:15 am 02:15 Clear 30 -1.2 17 -8.3 59 59 NE 7 11 30.53 1034 10 16 0.00 0.00
2:35 am 02:35 Clear 29 -1.5 17 -8.4 60 60 NE 7 11 30.53 1034 10 16 0.00 0.00
2:55 am 02:55 Clear 29 -1.5 17 -8.2 61 61 NE 6 9 30.53 1034 10 16 0.00 0.00
3:15 am 03:15 Clear 29 -1.5 18 -8 62 62 NNE 6 9 30.53 1034 10 16 0.00 0.00
3:35 am 03:35 Clear 29 -1.5 18 -8 62 62 NE 6 9 30.53 1034 10 16 0.00 0.00
3:55 am 03:55 Clear 29 -1.5 17 -8.1 61 61 NE 7 11 30.53 1034 10 16 0.00 0.00
4:15 am 04:15 Clear 29 -1.5 17 -8.1 61 61 NE 7 11 30.53 1034 10 16 0.00 0.00
4:35 am 04:35 Clear 29 -1.5 18 -8 62 62 NNE 5 7 30.53 1034 10 16 0.00 0.00
4:55 am 04:55 Clear 29 -1.5 18 -7.8 63 63 NNE 5 7 30.53 1034 10 16 0.00 0.00
5:15 am 05:15 Clear 29 -1.5 18 -7.8 63 63 NE 6 9 30.50 1033 10 16 0.00 0.00
5:35 am 05:35 Clear 29 -1.5 19 -7.5 64 64 NE 6 9 30.50 1033 10 16 0.00 0.00
5:55 am 05:55 Clear 29 -1.5 17 -8.1 61 61 NE 7 11 30.50 1033 10 16 0.00 0.00
6:15 am 06:15 Clear 29 -1.5 17 -8.5 59 59 ENE 8 13 30.50 1033 10 16 0.00 0.00
6:35 am 06:35 Clear 29 -1.5 17 -8.6 59 59 ENE 6 9 30.53 1034 10 16 0.00 0.00
6:55 am 06:55 Clear 29 -1.5 16 -9.1 57 57 NE 3 6 30.53 1034 10 16 0.00 0.00
7:15 am 07:15 Clear 29 -1.5 17 -8.6 59 59 ENE 8 13 30.50 1033 10 16 0.00 0.00
7:35 am 07:35 Clear 29 -1.5 16 -9.1 57 57 ENE 6 9 30.50 1033 10 16 0.00 0.00
7:55 am 07:55 Sunny 29 -1.5 16 -9.1 57 57 ENE 6 9 30.53 1034 10 16 0.00 0.00
8:15 am 08:15 Sunny 29 -1.5 15 -9.5 55 55 NE 3 6 30.53 1034 10 16 0.00 0.00
8:35 am 08:35 Sunny 30 -0.9 14 -10.1 50 50 ENE 6 9 30.53 1034 10 16 0.00 0.00
8:55 am 08:55 Sunny 32 0 15 -9.6 49 49 ENE 7 11 30.53 1034 10 16 0.00 0.00
9:15 am 09:15 Sunny 34 1.2 15 -9.2 46 46 ENE 6 9 30.50 1033 10 16 0.00 0.00
9:35 am 09:35 Sunny 34 1.2 14 -10.2 43 43 E 6 9 30.53 1034 10 16 0.00 0.00
9:55 am 09:55 Sunny 36 2.1 13 -10.7 39 39 E 6 9 30.53 1034 10 16 0.00 0.00
10:15 am 10:15 Mostly Cloudy 37 2.6 12 -10.9 37 37 E 8 13 30.53 1034 10 16 0.00 0.00
10:35 am 10:35 Cloudy 37 2.6 11 -11.7 34 34 E 8 13 30.53 1034 10 16 0.00 0.00
10:55 am 10:55 Cloudy 39 4 11 -11.4 32 32 E 7 11 30.53 1034 10 16 0.00 0.00
11:15 am 11:15 Partly Cloudy 39 4 11 -11.8 31 31 E 9 15 30.53 1034 10 16 0.00 0.00
11:35 am 11:35 Sunny 40 4.7 10 -12.3 28 28 ENE 10 17 30.53 1034 10 16 0.00 0.00
11:55 am 11:55 Sunny 42 5.5 10 -12.5 26 26 ESE 8 13 30.53 1034 10 16 0.00 0.00
12:15 pm 12:15 Sunny 43 6.2 9 -12.8 24 24 SE 8 13 30.50 1033 10 16 0.00 0.00
12:35 pm 12:35 Sunny 46 7.5 9 -12.6 23 23 E 8 13 30.48 1032 10 16 0.00 0.00
12:55 pm 12:55 Mostly Cloudy 47 8.2 9 -12.8 21 21 ESE 12 19 30.45 1031 10 16 0.00 0.00
1:15 pm 13:15 Mostly Cloudy 49 9.6 9 -12.9 19 19 ESE 10 17 30.42 1030 10 16 0.00 0.00
1:35 pm 13:35 Partly Cloudy 49 9.6 8 -13.4 18 18 SE 9 15 30.42 1030 10 16 0.00 0.00
1:55 pm 13:55 Cloudy 49 9.6 9 -13 19 19 ENE 8 13 30.42 1030 10 16 0.00 0.00
2:15 pm 14:15 Partly Cloudy 51 10.6 6 -14.2 16 16 ESE 6 9 30.39 1029 10 16 0.00 0.00
2:35 pm 14:35 Sunny 52 11.3 7 -13.9 16 16 SSE 6 9 30.39 1029 10 16 0.00 0.00
2:55 pm 14:55 Sunny 55 12.5 8 -13.4 15 15 ESE 7 11 30.39 1029 10 16 0.00 0.00
3:15 pm 15:15 Sunny 55 12.5 8 -13.2 15 15 SSE 9 15 30.36 1028 10 16 0.00 0.00
3:35 pm 15:35 Sunny 55 12.8 7 -14.1 14 14 S 5 7 30.36 1028 10 16 0.00 0.00
3:55 pm 15:55 Sunny 56 13.5 7 -13.9 14 14 SE 7 11 30.33 1027 10 16 0.00 0.00
4:15 pm 16:15 Sunny 57 13.8 7 -14.1 13 13 SSE 7 11 30.33 1027 10 16 0.00 0.00
4:35 pm 16:35 Sunny 57 13.8 6 -14.7 12 12 SE 6 9 30.30 1026 10 16 0.00 0.00
4:55 pm 16:55 Sunny 57 13.9 5 -14.9 12 12 S 8 13 30.30 1026 10 16 0.00 0.00
5:15 pm 17:15 Sunny 60 15.3 6 -14.5 11 11 SE 7 11 30.30 1026 10 16 0.00 0.00
5:35 pm 17:35 Partly Cloudy 60 15.3 4 -15.6 10 10 SSE 9 15 30.27 1025 10 16 0.00 0.00
5:55 pm 17:55 Partly Cloudy 58 14.4 6 -14.7 12 12 SSE 9 15 30.27 1025 10 16 0.00 0.00
6:15 pm 18:15 Partly Cloudy 60 15.3 6 -14.6 11 11 SSE 8 13 30.27 1025 10 16 0.00 0.00
6:35 pm 18:35 Partly Cloudy 60 15.3 8 -13.5 12 12 SSE 7 11 30.27 1025 10 16 0.00 0.00
6:55 pm 18:55 Cloudy 60 15.3 6 -14.5 11 11 S 6 9 30.27 1025 10 16 0.00 0.00
7:15 pm 19:15 Mostly Cloudy 58 14.7 7 -13.9 13 13 SSE 7 11 30.27 1025 10 16 0.00 0.00
7:35 pm 19:35 Sunny 57 13.8 9 -13 14 14 Calm 30.27 1025 10 16 0.00 0.00
7:55 pm 19:55 Clear 57 13.8 11 -11.7 16 16 Calm 30.27 1025 10 16 0.00 0.00
8:15 pm 20:15 Clear 57 13.8 10 -12 16 16 Calm 30.27 1025 10 16 0.00 0.00
8:35 pm 20:35 Partly Cloudy 57 13.7 15 -9.3 19 19 Calm 30.27 1025 N/A 0.00 0.00
8:55 pm 20:55 Mostly Cloudy 57 13.8 14 -9.8 19 19 SE 5 7 30.27 1025 N/A 0.00 0.00
9:15 pm 21:15 Partly Cloudy 57 13.8 17 -8.4 21 21 SSE 6 9 30.24 1024 N/A 0.00 0.00
9:35 pm 21:35 Mostly Cloudy 55 12.6 21 -5.9 27 27 SSE 5 7 30.24 1024 N/A 0.00 0.00
9:55 pm 21:55 Partly Cloudy 57 13.8 20 -6.7 24 24 SSE 6 9 30.24 1024 10 16 0.00 0.00
10:15 pm 22:15 Clear 55 13 20 -6.8 25 25 SSE 6 9 30.21 1023 10 16 0.00 0.00
10:35 pm 22:35 Mostly Cloudy 55 12.8 21 -5.9 27 27 S 3 6 30.24 1024 10 16 0.00 0.00
10:55 pm 22:55 Cloudy 56 13.1 21 -5.9 26 26 S 6 9 30.21 1023 10 16 0.00 0.00
11:15 pm 23:15 Partly Cloudy 55 12.8 21 -5.9 27 27 S 6 9 30.21 1023 10 16 0.00 0.00
11:35 pm 23:35 Partly Cloudy 55 12.5 23 -5.1 29 29 S 3 6 30.21 1023 10 16 0.00 0.00
11:55 pm 23:55 Mostly Cloudy 55 12.5 24 -4.6 30 30 SSE 3 6 30.21 1023 10 16 0.00 0.00

Powered by AerisWeather